TimeCDT,TemperatureF,Dew PointF,Humidity,Sea Level PressureIn,VisibilityMPH,Wind Direction,Wind SpeedMPH,Gust SpeedMPH,PrecipitationIn,Events,Conditions,WindDirDegrees,DateUTC
12:53 AM,39.0,25.0,57,29.61,10.0,SSE,15.0,-,N/A,,Clear,160,2014-03-18 05:53:00
1:53 AM,37.9,25.0,60,29.58,10.0,SSE,12.7,-,N/A,,Clear,160,2014-03-18 06:53:00
2:53 AM,39.0,27.0,62,29.56,10.0,South,16.1,21.9,N/A,,Clear,170,2014-03-18 07:53:00
3:53 AM,39.9,28.9,65,29.54,10.0,SSE,17.3,-,N/A,,Clear,160,2014-03-18 08:53:00
4:53 AM,39.9,30.9,70,29.51,10.0,SSE,13.8,-,N/A,,Clear,160,2014-03-18 09:53:00
5:53 AM,39.9,32.0,73,29.52,10.0,SSE,11.5,-,N/A,,Clear,160,2014-03-18 10:53:00
6:53 AM,42.1,34.0,73,29.50,10.0,SSE,18.4,24.2,N/A,,Clear,160,2014-03-18 11:53:00
7:53 AM,42.1,34.0,73,29.48,10.0,SSE,19.6,-,N/A,,Clear,160,2014-03-18 12:53:00
8:53 AM,43.0,34.0,71,29.48,10.0,SSE,17.3,28.8,N/A,,Clear,160,2014-03-18 13:53:00
9:53 AM,45.0,35.1,68,29.48,10.0,South,21.9,27.6,N/A,,Clear,170,2014-03-18 14:53:00
10:53 AM,48.0,36.0,63,29.48,10.0,South,19.6,25.3,N/A,,Clear,170,2014-03-18 15:53:00
11:53 AM,55.0,36.0,49,29.45,10.0,South,19.6,31.1,N/A,,Partly Cloudy,190,2014-03-18 16:53:00
12:53 PM,57.0,35.1,44,29.45,10.0,South,16.1,27.6,N/A,,Mostly Cloudy,190,2014-03-18 17:53:00
1:53 PM,59.0,35.1,41,29.44,10.0,SSW,12.7,21.9,N/A,,Mostly Cloudy,200,2014-03-18 18:53:00
2:53 PM,59.0,35.1,41,29.44,10.0,SSW,15.0,24.2,N/A,,Mostly Cloudy,200,2014-03-18 19:53:00
3:53 PM,60.1,35.1,39,29.45,10.0,SW,10.4,-,N/A,,Mostly Cloudy,220,2014-03-18 20:53:00
4:53 PM,62.1,35.1,37,29.44,10.0,SSW,13.8,-,N/A,,Partly Cloudy,200,2014-03-18 21:53:00
5:53 PM,61.0,34.0,36,29.44,10.0,SSW,13.8,18.4,N/A,,Clear,200,2014-03-18 22:53:00
6:53 PM,60.1,34.0,38,29.47,10.0,SSW,6.9,-,N/A,,Clear,200,2014-03-18 23:53:00
7:53 PM,59.0,34.0,39,29.49,10.0,WSW,3.5,-,N/A,,Overcast,240,2014-03-19 00:53:00
8:53 PM,57.0,33.1,40,29.56,10.0,West,15.0,25.3,N/A,,Mostly Cloudy,260,2014-03-19 01:53:00
9:53 PM,55.0,32.0,42,29.57,10.0,WNW,9.2,-,N/A,,Scattered Clouds,290,2014-03-19 02:53:00
10:53 PM,52.0,30.9,45,29.60,10.0,WSW,10.4,-,N/A,,Clear,250,2014-03-19 03:53:00
11:53 PM,46.0,32.0,58,29.63,10.0,West,10.4,-,N/A,,Mostly Cloudy,270,2014-03-19 04:53:00